Location: Lahitte
(43.6596°N, 0.6805°E)
Time: 14:57:09
(UTC+00:00)

Meteor 1-10 Rocket - Pass Details

Date: 15 May 2026
Orbit: 834 x 909 km, 81.3° (Epoch: 10 June)

Event Time Altitude Azimuth Distance (km) Brightness Sun altitude
Exits shadow 23:11:32 64° 117° (ESE) 998 4.3 -26.5°
Maximum altitude 23:11:53 66° 96° (E) 988 4.4 -26.6°
Drops below altitude 10° 23:17:47 10° 16° (NNE) 2,603 7.5 -26.8°
Sets 23:20:16 0° 13° (NNE) 3,549 8.5 -26.8°
